Regional Weather Roundup
Issued by NWS Spokane, WA

Home | Current Version | Previous Version | Text Only | Print | Product List | Glossary On
Versions: 1 2 3 4 5 6 7 8 9 10 11 12 13 14 15 16 17 18 19 20 21 22 23 24 25 26 27 28 29 30 31 32 33 34 35 36 37 38 39 40 41 42 43 44 45 46 47 48 49 50
000
NZUS01 KOTX 242310
RWROTX
EASTERN WASHINGTON/NORTHERN IDAHO ROUNDUP
NATIONAL WEATHER SERVICE, SPOKANE WA
400 PM PDT THU JUL 24 2014

Note: "fair" indicated few or no clouds below 12,000 feet with no
significant weather and/or obstructions to visibility.

...NORTHEAST WASHINGTON AND NORTHERN IDAHO PANHANDLE...

CITY           SKY/WX    TMP DP  RH WIND       PRES   REMARKS
SPOKANE INTL   CLOUDY    64  41  42 SW18      30.11F
SPOKANE DOWNTO CLOUDY    67  41  38 SW16G28   30.11F
COEUR D ALENE  CLOUDY    63  43  48 W13G22    30.12R
DEER PARK      CLOUDY    63  43  48 SW17      30.11S
SANDPOINT      CLOUDY    55  50  82 S6        30.11S

...SOUTHEAST WASHINGTON AND SOUTHERN IDAHO PANHANDLE...

CITY           SKY/WX    TMP DP  RH WIND       PRES   REMARKS
WALLA WALLA    MOSUNNY   76  42  29 W15G26    30.13F
PULLMAN/MOSCOW MOSUNNY   69  41  36 W16G25    30.17S
LEWISTON       MOSUNNY   76  40  27 NW13G21   30.10F
LOWELL           N/A     84  39  20 MISG      30.07F

...COLUMBIA BASIN...

CITY           SKY/WX    TMP DP  RH WIND       PRES   REMARKS
EPHRATA        CLOUDY    75  41  29 W8G23     30.06S
MOSES LAKE     PTSUNNY   79  43  27 SW16      30.07F
TRI CITIES     SUNNY     80  46  30 SW15G23   30.09F
HERMISTON      SUNNY     79  43  27 SW20      30.11F
PENDLETON      SUNNY     75  41  29 W12G23    30.13F

...EAST SLOPES CASCADES...

CITY           SKY/WX    TMP DP  RH WIND       PRES   REMARKS
THE DALLES     SUNNY     74  51  44 NW20G28   30.16F
YAKIMA         MOSUNNY   76  45  33 NW13      30.09F
ELLENSBURG     SUNNY     72  48  42 NW25G35   30.13S
WENATCHEE      PTSUNNY   75  45  34 NW20      30.07S
OMAK           MOSUNNY   74  41  30 S9        30.03F

...SOUTHERN BRITISH COLUMBIA...

CITY           SKY/WX    TMP DP  RH WIND       PRES   REMARKS
PENTICTON      PTSUNNY   64  50  59 S9        30.05S
CASTLEGAR      CLOUDY    63  48  59 S2        30.05S

...WESTERN MONTANA...

CITY           SKY/WX    TMP DP  RH WIND       PRES   REMARKS
MISSOULA       PTSUNNY   69  33  26 NW17G26   30.10F

...NEIGHBORING CITIES...

CITY           SKY/WX    TMP DP  RH WIND       PRES   REMARKS
SEATTLE        PTSUNNY   66  52  60 SW16G23   30.22R
CALGARY        MOSUNNY   66  30  26 W31G40    29.71F



USA.gov is the U.S. government's official web portal to all federal, state and local government web resources and services.